Weather History for Sanford, ME

Change the Weather History Date:

Monday, October 22, 2012

  Actual Average Record
Temperature  
Mean Temperature 53 °F -  
Max Temperature 60 °F 54 °F 82 °F (2007)
Min Temperature 46 °F 32 °F 19 °F (2002)
Degree Days  
Heating Degree Days 12    
Growing Degree Days 3 (Base 50)    
Moisture  
Dew Point 38 °F    
Average Humidity 57    
Maximum Humidity 87    
Minimum Humidity 42    
Precipitation  
Precipitation 0.00 in - - ()
Sea Level Pressure  
Sea Level Pressure 29.88 in    
Wind  
Wind Speed 10 mph (West)    
Max Wind Speed 24 mph    
Max Gust Speed 33 mph    
Visibility 10 miles    
Events      
Averages and records for this station are not official NWS values.
T = Trace of Precipitation, MM = Missing Value Source: NWS Daily Summary

Daily Weather History Graph

Daily Weather History Graph

Search for Another Location

Airport:

Trip Planner

Search our weather history database for the weather conditions in past years. The results will help you decide how hot, cold, wet, or windy it might be!

Date:

Astronomy

Oct. 22, 2012 Rise Set
Actual Time 7:05 AM EDT 5:47 PM EDT
Civil Twilight 6:36 AM EDT 6:16 PM EDT
Nautical Twilight 6:03 AM EDT 6:50 PM EDT
Astronomical Twilight 5:30 AM EDT 7:23 PM EDT
Moon 2:04 PM EDT (10/22) No Moon Set
Length of Visible Light 11h 40m
Length of Day
10h 41m
First Quarter, 56% of the Moon is Illuminated
Oct 22
First Quarter
Oct 29
Full
Nov 6
Last Quarter
Nov 13
New
Nov 20
First Quarter

Hourly Weather History & Observations

Time (EDT) Temp. Windchill Dew Point Humidity Pressure Visibility Wind Dir Wind Speed Gust Speed Precip Events Conditions
12:15 AM 48.2 °F - 39.2 °F 71% 29.83 in 10.0 mi WSW 10.4 mph - N/A   Clear
12:35 AM 48.2 °F - 41.0 °F 76% 29.83 in 10.0 mi WSW 11.5 mph - N/A   Clear
12:55 AM 48.2 °F - 41.0 °F 76% 29.82 in 10.0 mi WSW 11.5 mph - N/A   Clear
1:15 AM 46.4 °F 41.9 °F 42.8 °F 87% 29.83 in 10.0 mi SW 9.2 mph - N/A   Clear
1:55 AM 48.2 °F - 42.8 °F 82% 29.83 in 10.0 mi SW 5.8 mph - N/A   Overcast
2:15 AM 48.2 °F - 41.0 °F 76% 29.82 in 10.0 mi SW 9.2 mph - N/A   Mostly Cloudy
2:35 AM 48.2 °F - 41.0 °F 76% 29.82 in 10.0 mi SW 6.9 mph - N/A   Partly Cloudy
2:55 AM 46.4 °F 45.2 °F 41.0 °F 81% 29.82 in 10.0 mi WSW 3.5 mph - N/A   Clear
3:15 AM 48.2 °F - 39.2 °F 71% 29.82 in 10.0 mi West 5.8 mph - N/A   Clear
3:35 AM 50.0 °F - 37.4 °F 62% 29.82 in 10.0 mi WNW 11.5 mph - N/A   Clear
3:55 AM 50.0 °F - 37.4 °F 62% 29.82 in 10.0 mi WNW 12.7 mph 21.9 mph N/A   Clear
4:55 AM 48.2 °F - 37.4 °F 66% 29.83 in 10.0 mi WNW 10.4 mph - N/A   Clear
5:15 AM 48.2 °F - 37.4 °F 66% 29.83 in 10.0 mi West 11.5 mph 17.3 mph N/A   Clear
5:36 AM 48.2 °F - 35.6 °F 62% 29.84 in 10.0 mi West 5.8 mph - N/A   Clear
5:55 AM 48.2 °F - 37.4 °F 66% 29.84 in 10.0 mi NNE 3.5 mph - N/A   Clear
6:15 AM 48.2 °F - 37.4 °F 66% 29.84 in 10.0 mi West 6.9 mph - N/A   Clear
6:35 AM 48.2 °F - 37.4 °F 66% 29.84 in 10.0 mi Calm Calm - N/A   Clear
6:55 AM 48.2 °F - 35.6 °F 62% 29.85 in 10.0 mi West 8.1 mph - N/A   Clear
7:15 AM 48.2 °F - 35.6 °F 62% 29.85 in 10.0 mi West 12.7 mph 20.7 mph N/A   Clear
7:35 AM 50.0 °F - 35.6 °F 58% 29.85 in 10.0 mi West 10.4 mph 19.6 mph N/A   Clear
7:55 AM 51.8 °F - 35.6 °F 54% 29.85 in 10.0 mi West 15.0 mph 24.2 mph N/A   Clear
8:15 AM 51.8 °F - 37.4 °F 58% 29.87 in 10.0 mi West 13.8 mph 23.0 mph N/A   Clear
8:35 AM 51.8 °F - 35.6 °F 54% 29.88 in 10.0 mi West 10.4 mph 24.2 mph N/A   Clear
8:55 AM 53.6 °F - 37.4 °F 54% 29.87 in 10.0 mi WNW 16.1 mph 23.0 mph N/A   Clear
9:15 AM 53.6 °F - 37.4 °F 54% 29.87 in 10.0 mi West 15.0 mph 21.9 mph N/A   Clear
9:35 AM 55.4 °F - 37.4 °F 51% 29.87 in 10.0 mi West 10.4 mph 19.6 mph N/A   Clear
9:55 AM 55.4 °F - 37.4 °F 51% 29.87 in 10.0 mi West 15.0 mph 21.9 mph N/A   Clear
10:15 AM 57.2 °F - 37.4 °F 48% 29.87 in 10.0 mi WNW 12.7 mph 24.2 mph N/A   Clear
10:35 AM 57.2 °F - 37.4 °F 48% 29.88 in 10.0 mi WNW 11.5 mph 25.3 mph N/A   Clear
10:55 AM 59.0 °F - 37.4 °F 45% 29.88 in 10.0 mi WNW 13.8 mph 23.0 mph N/A   Clear
11:15 AM 59.0 °F - 37.4 °F 45% 29.87 in 10.0 mi WNW 17.3 mph 28.8 mph N/A   Clear
11:35 AM 60.8 °F - 39.2 °F 45% 29.87 in 10.0 mi WNW 17.3 mph 23.0 mph N/A   Clear
11:55 AM 60.8 °F - 37.4 °F 42% 29.88 in 10.0 mi NW 16.1 mph 29.9 mph N/A   Partly Cloudy
12:15 PM 60.8 °F - 39.2 °F 45% 29.88 in 10.0 mi WNW 18.4 mph 27.6 mph N/A   Partly Cloudy
12:35 PM 60.8 °F - 37.4 °F 42% 29.87 in 10.0 mi WNW 12.7 mph 29.9 mph N/A   Clear
12:55 PM 60.8 °F - 37.4 °F 42% 29.88 in 10.0 mi NW 17.3 mph 28.8 mph N/A   Partly Cloudy
1:15 PM 60.8 °F - 37.4 °F 42% 29.87 in 10.0 mi WNW 18.4 mph 27.6 mph N/A   Partly Cloudy
1:55 PM 60.8 °F - 37.4 °F 42% 29.87 in 10.0 mi WNW 24.2 mph 33.4 mph N/A   Clear
2:15 PM 60.8 °F - 37.4 °F 42% 29.87 in 10.0 mi WNW 15.0 mph 28.8 mph N/A   Clear
2:55 PM 60.8 °F - 37.4 °F 42% 29.88 in 10.0 mi WNW 12.7 mph 20.7 mph N/A   Overcast
3:15 PM 59.0 °F - 37.4 °F 45% 29.87 in 10.0 mi WNW 15.0 mph 27.6 mph N/A   Scattered Clouds
3:35 PM 60.8 °F - 37.4 °F 42% 29.87 in 10.0 mi WNW 12.7 mph 28.8 mph N/A   Clear
4:15 PM 60.8 °F - 37.4 °F 42% 29.87 in 10.0 mi WNW 19.6 mph 27.6 mph N/A   Clear
4:35 PM 59.0 °F - 37.4 °F 45% 29.88 in 10.0 mi NW 12.7 mph 26.5 mph N/A   Clear
4:55 PM 59.0 °F - 37.4 °F 45% 29.88 in 10.0 mi WNW 10.4 mph 18.4 mph N/A   Clear
5:15 PM 57.2 °F - 37.4 °F 48% 29.89 in 10.0 mi WNW 10.4 mph 26.5 mph N/A   Clear
5:35 PM 57.2 °F - 37.4 °F 48% 29.90 in 10.0 mi WNW 6.9 mph - N/A   Clear
5:55 PM 57.2 °F - 37.4 °F 48% 29.90 in 10.0 mi WNW 8.1 mph - N/A   Clear
6:15 PM 55.4 °F - 37.4 °F 51% 29.91 in 10.0 mi NW 4.6 mph - N/A   Clear
6:35 PM 55.4 °F - 37.4 °F 51% 29.92 in 10.0 mi Calm Calm - N/A   Clear
6:55 PM 53.6 °F - 37.4 °F 54% 29.92 in 10.0 mi West 4.6 mph - N/A   Clear
7:15 PM 50.0 °F - 37.4 °F 62% 29.93 in 10.0 mi West 6.9 mph - N/A   Clear
7:35 PM 51.8 °F - 37.4 °F 58% 29.92 in 10.0 mi West 10.4 mph - N/A   Clear
7:55 PM 51.8 °F - 37.4 °F 58% 29.92 in 10.0 mi West 10.4 mph - N/A   Clear
8:15 PM 51.8 °F - 37.4 °F 58% 29.93 in 10.0 mi West 9.2 mph - N/A   Clear
8:35 PM 51.8 °F - 37.4 °F 58% 29.94 in 10.0 mi West 9.2 mph - N/A   Clear
8:55 PM 51.8 °F - 37.4 °F 58% 29.94 in 10.0 mi West 5.8 mph - N/A   Clear
9:15 PM 46.4 °F 45.2 °F 37.4 °F 71% 29.95 in 10.0 mi SSE 3.5 mph - N/A   Clear
9:55 PM 48.2 °F - 37.4 °F 66% 29.95 in 10.0 mi South 4.6 mph - N/A   Clear
10:15 PM 46.4 °F 45.2 °F 37.4 °F 71% 29.95 in 10.0 mi SSW 3.5 mph - N/A   Clear
10:35 PM 51.8 °F - 37.4 °F 58% 29.96 in 10.0 mi West 8.1 mph - N/A   Clear
10:55 PM 50.0 °F - 37.4 °F 62% 29.96 in 10.0 mi WSW 5.8 mph - N/A   Clear
11:15 PM 50.0 °F - 37.4 °F 62% 29.95 in 10.0 mi West 9.2 mph - N/A   Clear
11:35 PM 48.2 °F - 37.4 °F 66% 29.95 in 10.0 mi West 8.1 mph - N/A   Clear
11:55 PM 46.4 °F 44.3 °F 35.6 °F 66% 29.96 in 10.0 mi SSE 4.6 mph - N/A   Clear